TimePST,TemperatureF,Dew PointF,Humidity,Sea Level PressureIn,VisibilityMPH,Wind Direction,Wind SpeedMPH,Gust SpeedMPH,PrecipitationIn,Events,Conditions,WindDirDegrees,DateUTC
12:15 AM,44.6,33.8,66,29.99,7.0,West,3.5,-,N/A,,Clear,280,2014-01-30 08:15:00
12:35 AM,44.6,35.6,71,29.98,7.0,West,6.9,-,N/A,,Clear,270,2014-01-30 08:35:00
12:55 AM,44.6,35.6,71,29.98,7.0,WNW,6.9,-,N/A,,Clear,300,2014-01-30 08:55:00
1:15 AM,44.6,35.6,71,29.98,7.0,West,5.8,-,N/A,,Clear,280,2014-01-30 09:15:00
1:35 AM,46.4,37.4,71,29.97,8.0,WNW,4.6,-,N/A,,Clear,300,2014-01-30 09:35:00
1:55 AM,48.2,37.4,66,29.96,9.0,NW,9.2,-,N/A,,Clear,320,2014-01-30 09:55:00
2:15 AM,46.4,39.2,76,29.95,10.0,NW,8.1,-,N/A,,Clear,310,2014-01-30 10:15:00
2:35 AM,46.4,39.2,76,29.94,10.0,NW,6.9,-,N/A,,Clear,320,2014-01-30 10:35:00
2:55 AM,48.2,41.0,76,29.93,10.0,WNW,4.6,-,N/A,,Clear,300,2014-01-30 10:55:00
3:15 AM,46.4,41.0,81,29.92,10.0,West,8.1,-,N/A,,Clear,280,2014-01-30 11:15:00
3:35 AM,46.4,41.0,81,29.91,10.0,WNW,10.4,-,N/A,,Clear,290,2014-01-30 11:35:00
3:55 AM,48.2,41.0,76,29.91,10.0,NW,9.2,-,N/A,,Clear,320,2014-01-30 11:55:00
4:15 AM,48.2,42.8,82,29.90,10.0,NNW,9.2,-,N/A,,Clear,340,2014-01-30 12:15:00
4:35 AM,46.4,41.0,81,29.90,10.0,West,4.6,-,N/A,,Clear,280,2014-01-30 12:35:00
4:55 AM,48.2,41.0,76,29.90,10.0,NW,9.2,-,N/A,,Clear,310,2014-01-30 12:55:00
5:15 AM,48.2,39.2,71,29.89,8.0,West,6.9,-,N/A,,Clear,270,2014-01-30 13:15:00
5:35 AM,46.4,37.4,71,29.89,6.0,NNW,11.5,16.1,N/A,,Haze,330,2014-01-30 13:35:00
5:55 AM,46.4,37.4,71,29.89,5.0,NW,9.2,16.1,N/A,,Haze,310,2014-01-30 13:55:00
6:15 AM,46.4,35.6,66,29.88,5.0,NW,8.1,-,N/A,,Haze,310,2014-01-30 14:15:00
6:35 AM,46.4,35.6,66,29.88,5.0,NW,9.2,-,N/A,,Haze,310,2014-01-30 14:35:00
6:55 AM,48.2,37.4,66,29.88,5.0,WNW,13.8,17.3,N/A,,Haze,300,2014-01-30 14:55:00
7:15 AM,48.2,37.4,66,29.89,5.0,NW,13.8,-,N/A,,Haze,310,2014-01-30 15:15:00
7:35 AM,48.2,37.4,66,29.90,4.0,NW,13.8,-,N/A,,Haze,310,2014-01-30 15:35:00
7:55 AM,48.2,37.4,66,29.91,4.0,NW,12.7,23.0,N/A,,Haze,310,2014-01-30 15:55:00
8:15 AM,48.2,37.4,66,29.90,4.0,WNW,8.1,16.1,N/A,,Haze,290,2014-01-30 16:15:00
8:35 AM,50.0,39.2,66,29.92,5.0,West,8.1,-,N/A,Rain,Light Rain,280,2014-01-30 16:35:00
8:55 AM,48.2,41.0,76,29.92,5.0,NW,12.7,19.6,N/A,,Haze,320,2014-01-30 16:55:00
9:15 AM,48.2,44.6,87,29.92,3.0,WNW,11.5,-,N/A,Rain,Light Rain,290,2014-01-30 17:15:00
9:55 AM,46.4,42.8,87,29.94,3.0,NW,13.8,20.7,N/A,Rain,Light Rain,310,2014-01-30 17:55:00
10:15 AM,46.4,44.6,93,29.93,1.5,NW,11.5,16.1,0.02,Rain,Light Rain,310,2014-01-30 18:15:00
10:35 AM,48.2,44.6,87,29.92,5.0,West,18.4,-,0.03,Rain,Light Rain,270,2014-01-30 18:35:00
10:55 AM,50.0,44.6,82,29.92,6.0,West,17.3,23.0,0.03,,Haze,260,2014-01-30 18:55:00
11:15 AM,-9999,-9999,N/A,29.90,-9999.0,North,-9999.0,-,N/A,,Unknown,0,2014-01-30 19:15:00
11:35 AM,50.0,44.6,82,29.90,3.0,West,20.7,26.5,N/A,Rain,Light Rain,270,2014-01-30 19:35:00
11:55 AM,48.2,44.6,87,29.88,2.5,West,19.6,29.9,0.03,Rain,Light Rain,270,2014-01-30 19:55:00
12:15 PM,48.2,44.6,87,29.87,5.0,West,19.6,29.9,N/A,Rain,Light Rain,270,2014-01-30 20:15:00
12:35 PM,48.2,46.4,93,29.86,4.0,West,17.3,29.9,N/A,,Mist,270,2014-01-30 20:35:00
12:55 PM,48.2,46.4,93,29.85,1.2,West,24.2,32.2,N/A,Rain,Light Rain,270,2014-01-30 20:55:00
1:15 PM,48.2,46.4,93,29.84,1.5,WNW,18.4,34.5,0.02,Rain,Rain,300,2014-01-30 21:15:00
1:35 PM,46.4,46.4,100,29.84,1.2,NW,20.7,28.8,0.03,Rain,Light Rain,310,2014-01-30 21:35:00
1:55 PM,44.6,44.6,100,29.84,1.0,NW,23.0,27.6,0.04,Rain,Light Rain,310,2014-01-30 21:55:00
2:15 PM,44.6,44.6,100,29.85,0.5,NW,20.7,26.5,N/A,Fog,Fog,320,2014-01-30 22:15:00
2:35 PM,44.6,44.6,100,29.85,0.2,NW,19.6,27.6,N/A,Fog,Fog,310,2014-01-30 22:35:00
2:55 PM,42.8,42.8,100,29.85,0.2,NW,23.0,27.6,N/A,Rain,Light Rain,320,2014-01-30 22:55:00
3:15 PM,42.8,42.8,100,29.85,2.5,NW,19.6,28.8,N/A,Rain,Light Rain,310,2014-01-30 23:15:00
3:35 PM,42.8,42.8,100,29.85,1.8,WNW,18.4,27.6,N/A,Rain,Light Rain,300,2014-01-30 23:35:00
3:55 PM,42.8,42.8,100,29.85,1.8,NW,20.7,27.6,N/A,,Overcast,310,2014-01-30 23:55:00
4:15 PM,42.8,42.8,100,29.85,0.8,NW,18.4,29.9,N/A,Rain,Light Rain,310,2014-01-31 00:15:00
4:35 PM,42.8,42.8,100,29.85,5.0,NW,20.7,27.6,N/A,,Overcast,310,2014-01-31 00:35:00
4:55 PM,42.8,42.8,100,29.85,5.0,NW,16.1,26.5,N/A,,Overcast,310,2014-01-31 00:55:00
5:15 PM,42.8,42.8,100,29.85,7.0,NW,17.3,-,N/A,,Overcast,310,2014-01-31 01:15:00
5:35 PM,42.8,42.8,100,29.85,7.0,NW,13.8,-,N/A,,Overcast,310,2014-01-31 01:35:00
5:55 PM,42.8,42.8,100,29.85,3.0,NW,17.3,21.9,N/A,,Overcast,310,2014-01-31 01:55:00
6:15 PM,42.8,42.8,100,29.85,0.8,NW,15.0,-,N/A,,Overcast,320,2014-01-31 02:15:00
6:35 PM,42.8,42.8,100,29.85,0.2,NW,15.0,19.6,N/A,,Overcast,320,2014-01-31 02:35:00
6:55 PM,41.0,41.0,100,29.85,0.2,NW,18.4,23.0,N/A,Rain,Light Rain,320,2014-01-31 02:55:00
7:15 PM,41.0,41.0,100,29.86,0.2,NW,16.1,19.6,N/A,Rain,Light Rain,320,2014-01-31 03:15:00
7:35 PM,41.0,41.0,100,29.85,0.2,NNW,13.8,-,N/A,Rain,Light Rain,330,2014-01-31 03:35:00
7:55 PM,41.0,41.0,100,29.85,0.2,NW,12.7,-,N/A,Fog,Fog,310,2014-01-31 03:55:00
8:15 PM,41.0,41.0,100,29.85,0.2,NNW,15.0,20.7,N/A,Fog,Fog,330,2014-01-31 04:15:00
8:35 PM,41.0,41.0,100,29.85,4.0,NW,15.0,-,N/A,Rain,Light Rain,320,2014-01-31 04:35:00
8:55 PM,41.0,41.0,100,29.85,1.0,NW,15.0,-,N/A,Rain,Light Rain,320,2014-01-31 04:55:00
9:15 PM,41.0,41.0,100,29.86,0.2,NW,11.5,-,N/A,Fog,Fog,320,2014-01-31 05:15:00
9:35 PM,41.0,41.0,100,29.86,0.2,WNW,9.2,-,N/A,Fog,Fog,300,2014-01-31 05:35:00
9:55 PM,41.0,41.0,100,29.86,1.8,WNW,10.4,-,N/A,Rain,Light Rain,300,2014-01-31 05:55:00
10:15 PM,41.0,41.0,100,29.87,0.2,WNW,15.0,18.4,0.01,Rain,Light Rain,300,2014-01-31 06:15:00
10:35 PM,41.0,41.0,100,29.86,3.0,NW,16.1,23.0,0.05,Rain,Light Rain,320,2014-01-31 06:35:00
10:55 PM,41.0,41.0,100,29.87,4.0,WNW,10.4,-,0.05,,Overcast,300,2014-01-31 06:55:00
11:15 PM,41.0,41.0,100,29.86,5.0,NW,15.0,-,N/A,,Overcast,320,2014-01-31 07:15:00
11:35 PM,39.2,39.2,100,29.86,3.0,NW,13.8,-,0.03,Rain,Light Rain,310,2014-01-31 07:35:00
11:55 PM,39.2,39.2,100,29.85,0.2,NW,11.5,19.6,0.03,Rain,Light Rain,310,2014-01-31 07:55:00